www.pogodaiklimat.ru

Погода и климат >> Архив погоды >> Индонезия >> Менадо


ПОГОДА в Менадо

  • Прогноз погоды в Менадо
  • Монитор погоды в Менадо

АРХИВ ПОГОДЫ в Менадо

Время (UTC), дата Ветер
(напр.,м/с)
 
Видим.   Явления Облачность Т
(С)
Тd
(С)
f
(%)
Тe
(С)
Тes
(С)
Комфортность P
(гПа)
Po
(гПа)
Тmin
(С)
Tmax
(С)
R
(мм)
R24
(мм)
S
(см)
12 10.06 ЮВ 1 9000 м 10/6 600 м
[Cu Sc Ac As Ci fib]
+25.7 +24.1 91 +36 +36 очень
душно
1010.2 1000.9 +28.9
15 10.06 В 1 9000 м 9/5 600 м
[Cu Sc Ac As Ci fib]
+25.1 +23.5 91 +34 +34 очень
душно
1011.3 1002.0
18 10.06 СВ 1 9000 м в посл. час дождь 9/5 600 м
[Cu Sc Ac As Ci fib]
+24.3 +23.6 96 +33 +33 очень
душно
1009.9 1000.6 0.0
21 10.06 В 1 9000 м 8/4 630 м
[Cu Sc Ac As Ci fib]
+24.1 +23.1 94 +32 +32 очень
душно
1010.9 1001.5
00 11.06 ЮВ 2 10 км 6/3 660 м
[Cu Sc Ac As Ci fib]
+29.8 +24.9 75 +43 +47 опасность
перегрева
1011.9 1002.7 +23.8 0.0 0.0
03 11.06 З 2 10 км 6/5 630 м
[Cu Sc Ac As Ci fib]
+30.5 +24.9 72 +44 +53 опасность
перегрева
1011.5 1002.3
06 11.06 З 1 9000 м осадки на расстоянии 9/5 630 м
[Cu Sc Ac As Ci fib]
+29.4 +24.3 74 +41 +46 опасность
перегрева
1008.9 999.7 10
09 11.06 СЗ 1 10 км 8/5 630 м
[Cu Sc Ac As Ci fib]
+28.8 +24.4 77 +40 +41 очень
душно
1008.4 999.2
12 11.06 З 1 10 км 8/4 630 м
[Cu Sc Ac As Ci fib]
+26.4 +24.8 91 +38 +38 очень
душно
1010.4 1001.1 +30.4
15 11.06 В 2 9000 м 8/4 630 м
[Cu Sc Ac As Ci fib]
+24.4 +23.9 97 +33 +33 очень
душно
1011.3 1001.9
18 11.06 ЮВ 1 9000 м 8/4 630 м
[Cu Sc Ac As Ci fib]
+23.6 +23.3 98 +32 +32 очень
душно
1009.7 1000.3
21 11.06 В 1 9000 м 6/4 630 м
[Cu Sc Ac As Ci fib]
+22.8 +22.6 99 +31 +31 очень
душно
1010.1 1000.7
00 12.06 В 1 10 км 5/3 700 м
[Cu Sc As trans Cs]
+30.0 +24.4 72 +42 +47 опасность
перегрева
1011.6 1002.4 +22.6 10
03 12.06 В 2 10 км 5/3 700 м
[Cu Sc As trans Cs]
+32.3 +23.3 59 +43 +54 опасность
перегрева
1010.7 1001.6
06 12.06 З 2 10 км слаб. дождь 9/5 700 м
[Cu Sc As trans Cs]
+28.9 +25.3 81 +42 +46 опасность
перегрева
1009.0 999.8 0.0
09 12.06 ЮЗ 1 10 км {дождь} 6/4 660 м
[Cu Sc As trans Ci fib]
+30.5 +23.9 68 +42 +42 опасность
перегрева
1009.0 999.9 0.5
12 12.06 ЮВ 2 10 км {дождь} 5/3 660 м
[Cu Sc As trans Ci fib]
+27.0 +23.9 83 +37 +37 очень
душно
1010.6 1001.3 +32.5 0.5
15 12.06 штиль 0 9000 м 8/5 630 м
[Cu Sc Ac As Ci fib]
+24.5 +23.8 96 +33 +33 очень
душно
1011.3 1001.9
18 12.06 СВ 1 9000 м 8/5 630 м
[Cu Sc Ac As Ci fib]
+24.0 +23.5 97 +32 +32 очень
душно
1009.7 1000.3
21 12.06 СВ 1 9000 м 6/4 630 м
[Cu Sc Ac As Ci fib]
+23.8 +23.0 95 +32 +32 очень
душно
1009.4 1000.0
00 13.06 ЮВ 1 10 км 4/1 700 м
[Sc diur, vesp As trans Ci fib]
+29.9 +23.3 68 +40 +46 очень
душно
1010.2 1001.0 +24.0 0.5
03 13.06 С 2 10 км 6/4 660 м
[Cu Sc As trans Ci fib]
+32.9 +23.2 57 +43 +53 опасность
перегрева
1009.5 1000.4
06 13.06 СЗ 3 10 км 8/6 660 м
[Cu Sc As trans Ci fib]
+31.7 +24.0 64 +44 +47 опасность
перегрева
1007.1 998.0
09 13.06 З 1 10 км 8/6 660 м
[Cu Sc As trans Ci fib]
+29.9 +24.7 74 +43 +43 опасность
перегрева
1007.3 998.2
12 13.06 С 1 10 км 5/3 660 м
[Cu Sc As trans Ci fib]
+26.5 +24.7 90 +38 +38 очень
душно
1009.5 1000.2 +32.5
15 13.06 СВ 1 10 км 5/3 660 м
[Cu Sc As trans Ci fib]
+25.6 +24.0 91 +35 +35 очень
душно
1010.6 1001.3
21 13.06 С 1 8000 м слаб. дождь 8/5 660 м
[Cu Sc As trans Ci fib]
+24.8 +23.8 94 +34 +34 очень
душно
1008.8 999.5 0.1
00 14.06 С 2 10 км {дождь} 10/6 600 м
[Cu Sc Ac As Ci fib]
+27.0 +24.1 84 +37 +39 очень
душно
1011.1 1001.8 +24.5 0.9 1
03 14.06 СЗ 2 8000 м осадки на расстоянии 10/6 600 м
[Cu Sc Ac As Ci fib]
+29.6 +24.5 74 +42 +46 опасность
перегрева
1010.2 1001.0
06 14.06 С 2 9000 м 10/6 600 м
[Cu Sc Ac As Ci fib]
+28.3 +24.3 79 +40 +42 очень
душно
1008.4 999.2
09 14.06 З 1 9000 м {дождь} 8/4 630 м
[Cu Sc Ac As Ci fib]
+26.9 +24.7 88 +38 +39 очень
душно
1008.6 999.4 1
12 14.06 СВ 1 9000 м {дождь} 6/3 630 м
[Cu Sc Ac As Ci fib]
+25.0 +24.5 97 +35 +35 очень
душно
1010.3 1001.0 +32.4 1
15 14.06 В 1 9000 м 6/3 630 м
[Cu Sc Ac As Ci fib]
+24.1 +23.4 96 +32 +32 очень
душно
1010.3 1000.9
18 14.06 СВ 1 9000 м 6/3 630 м
[Cu Sc Ac As Ci fib]
+23.5 +23.2 98 +31 +31 очень
душно
1009.3 999.9
21 14.06 штиль 0 7000 м слаб. дождь 10/5 630 м
[Cu Sc Ac As Ci fib]
+24.2 +23.9 98 +33 +33 очень
душно
1009.8 1000.5 0.0
00 15.06 Ю 2 1000 м слаб. дождь 10/8 540 м
[Cb cap Ac As Ci fib]
+24.8 +24.5 98 +35 +35 очень
душно
1012.4 1003.0 +23.8 37 38
03 15.06 Ю 2 10 км {дождь} 9/5 630 м
[Cu Sc Ac As Ci fib]
+27.4 +25.0 87 +39 +45 очень
душно
1011.0 1001.7 3
06 15.06 З 3 10 км 8/5 630 м
[Cu Sc Ac As Ci fib]
+30.5 +23.4 66 +41 +45 опасность
перегрева
1009.0 999.8 3
09 15.06 З 2 10 км 9/5 630 м
[Cu Sc Ac As Ci fib]
+29.0 +23.2 71 +39 +39 очень
душно
1009.1 999.9
12 15.06 В 1 10 км 8/4 630 м
[Cu Sc Ac As Ci fib]
+26.0 +24.6 92 +37 +37 очень
душно
1011.2 1001.9 +30.9
15 15.06 СВ 1 10 км 8/4 630 м
[Cu Sc Ac As Ci fib]
+24.8 +24.1 96 +34 +34 очень
душно
1011.9 1002.6
18 15.06 штиль 0 10 км 8/4 630 м
[Cu Sc Ac As Ci fib]
+24.2 +23.7 97 +33 +33 очень
душно
1010.7 1001.3
21 15.06 В 1 10 км 8/4 630 м
[Cu Sc Ac As Ci fib]
+23.4 +22.9 97 +33 +33 очень
душно
1009.7 1000.3
00 16.06 В 2 10 км 8/3 700 м
[Sc diur, vesp Ac As Ci fib]
+27.5 +23.5 79 +37 +40 очень
душно
1010.8 1001.5 +23.3 3
03 16.06 В 2 10 км 8/3 700 м
[Sc diur, vesp Ac As Ci fib]
+32.1 +23.6 61 +43 +52 опасность
перегрева
1010.0 1000.9
06 16.06 СЗ 3 9000 м осадки на расстоянии 9/5 630 м
[Cu Sc Ac As Ci fib]
+31.0 +23.6 65 +42 +46 опасность
перегрева
1008.6 999.5
09 16.06 Ю 2 8000 м слаб. дождь 10/8 600 м
[Cu Sc Ac As Ci fib]
+27.1 +25.3 90 +39 +40 очень
душно
1009.1 999.9 4
12 16.06 СВ 1 9000 м 9/4 630 м
[Cu Sc Ac As Ci fib]
+25.5 +24.8 96 +36 +36 очень
душно
1010.9 1001.6 +32.6 6
15 16.06 В 1 9000 м 9/5 630 м
[Cu Sc Ac As Ci fib]
+25.5 +24.3 93 +35 +35 очень
душно
1011.7 1002.4
18 16.06 штиль 0 8000 м 10/5 630 м
[Cu Sc Ac As Ci fib]
+25.1 +24.8 98 +35 +35 очень
душно
1010.9 1001.6
21 16.06 Ю 1 9000 м 9/5 630 м
[Cu Sc Ac As Ci fib]
+24.8 +24.5 98 +35 +35 очень
душно
1011.1 1001.8
00 17.06 штиль 0 10 км 9/5 660 м
[Cu Sc Ac As Ci fib]
+26.3 +23.6 85 +36 +38 очень
душно
1012.3 1003.0 +23.6 3 13
03 17.06 штиль 0 10 км 9/4 660 м
[Cu Sc Ac As Ci fib]
+30.3 +24.7 72 +43 +52 опасность
перегрева
1011.7 1002.5
06 17.06 СЗ 2 10 км 10/5 660 м
[Cu Sc Ac As Ci fib]
+30.1 +24.0 70 +42 +45 опасность
перегрева
1009.3 1000.1
09 17.06 В 2 10 км 10/5 630 м
[Cu Sc As trans Ci fib]
+26.9 +23.4 81 +36 +37 очень
душно
1010.4 1001.1

 

Местоположение метеостанции Менадо (Индонезия): широта 1.53 долгота 124.91 высота над уровнем моря 80 м.

В архиве по умолчанию представлена погода в Менадо за последнюю неделю. Архивные данные за месяц целиком и за предыдущие месяцы, начиная с января 2011 года, Вы можете получить, выбрав интересующий диапазон дат из раскрывающегося списка и нажав кнопку "Ввод!".


*Определитесь, кто Вы:
робот инопланетянин человек

Внимание! Время в таблицах - всемирное. Для получения местного времени необходимо прибавить поправку, которая равна 8 ч.

Смотрите также архив погоды в соседних городах и на ближайших метеорологических станциях:

Погода в Битунге (Индонезия) (32 км)
Погода в Горонтало (Индонезия) (234 км)
Погода в Тернате (Индонезия) (285 км)
Погода в Голеа (Индонезия) (326 км)
Погода в Лувуке (Индонезия) (359 км)
Погода в Лабухе (Индонезия) (375 км)
Погода на Санане (Индонезия) (419 км)
Погода в Толи-Толи (Индонезия) (461 км)
Погода в Генерал-Сантосе (Филиппины) (511 км)
Погода в Посо (Индонезия) (566 км)

Пояснения к столбцам:

Ветер - указаны скорость ветра в м/с - средняя за 10 мин, порывы в срок и между сроками (в фигурных скобках) и направление, откуда дует ветер: С - северный, СВ - северо-восточный, В - восточный, ЮВ - юго-восточный, Ю - южный, ЮЗ - юго-западный, З - западный, СЗ - северо-западный.
Видимость - горизонтальная дальность видимости в метрах или километрах. При видимости от 1 до 10 км при отсутствии осадков обычно наблюдается дымка, при ухудшении видимости до 1 км и менее - туман. В сухую погоду видимость может ухудшаться дымом, пылью или мглою.
Явления - указаны атмосферные явления, наблюдавшиеся в срок или в последний час перед сроком; фигурными скобками обозначены явления, наблюдавшиеся между сроками (за 1-3 часа до срока); квадратными скобками обозначены град или гололедные отложения с указанием их диаметра в мм.
Облачность - указаны через наклонную черту общая и нижняя облачность в баллах и высота нижней границы облаков в метрах; квадратными скобками обозначены формы облаков: Ci - перистые, Cs - перисто-слоистые, Cc - перисто-кучевые, Ac - высококучевые, As - высокослоистые, Sc - слоисто-кучевые, Ns - слоисто-дождевые, Cu - кучевые, Cb - кучево-дождевые. Подробнее классификацию облаков см. в Атласе облаков (PDF).
T - Температура воздуха - температура, измеренная на высоте 2 м над землей.
Td - Температура точки росы - температура, при понижении до которой содержащийся в воздухе водяной пар достигнет насыщения.
f - Относительная влажность воздуха - влажноcть воздуха, измеренная на высоте 2 м над землей.
Te - Эффективная температура - температура, которую ощущает одетый по сезону человек в тени. Характеристика душности погоды. При расчете учитывается влияние влажности воздуха и скорости ветра на теплоощущения человека.
Tes - Эффективная температура на солнце - температура, которую ощущает человек, с поправкой на солнечный нагрев. Характеристика знойности погоды. Зависит от высоты солнца над горизонтом, облачности и скорости ветра. Ночью, в пасмурную погоду, а также при ветре 12 м/с и более поправка равна нулю.
P - Атмосферное давление - приведенное к уровню моря атмосферное давление.
Po - Атмосферное давление - измеренное на уровне метеостанции атмосферное давление.
Tmin - Минимальная температура - минимум температуры воздуха на высоте 2 м над землей.
Tmax - Максимальная температура - максимум температуры воздуха на высоте 2 м над землей.
R - Количество осадков - Количество выпавших осадков за период времени, мм. При наведении курсора мыши на число - период времени, за который выпало указанное количество осадков.
R24 - Количество осадков - Количество выпавших осадков за 24 часа, мм.
S - Снежный покров - Высота снежного покрова, см. При наведении курсора мыши на число - состояние снежного покрова и степень покрытия местности в баллах.